User: anonymous   Login
Location: Unnamed
(47.6264°N, 122.3366°W)
Time: 20:49:26
(UTC-07:00)
Language:

ELYUSIUM/LOWER FREE FLYE - Orbit

View from above orbital plane
View from above orbital plane
View from above satellite
View from above satellite

Ground track
Ground track

The orbit data is extracted from the following two-line orbital elements,

1 43760U 18099C   20265.78498489  .00000113  00000-0  15307-4 0  9994
2 43760  97.7012 336.0638 0012984 221.6661 138.3572 14.95760774 98348
Epoch (UTC): 21 September 2020 18:50:22
Eccentricity: 0.0012984
inclination: 97.7012°
perigee height: 571 km
apogee height: 589 km
right ascension of ascending node: 336.0638°
argument of perigee: 221.6661°
revolutions per day: 14.95760774
mean anomaly at epoch: 138.3572°
orbit number at epoch: 9834

The dashed part of the orbit path shows where the satellite is in the earth's shadow,  

DLR